Tracking 18624 objects as of 29-April-2017
HD Live streaming from Space Station
objects crossing your sky now

COSMOS 2087

Track COSMOS 2087 now!
COSMOS 2087 is classified as:


NORAD ID: 20707
Int'l Code: 1990-064A
Perigee: 4,118.7 km
Apogee: 36,359.8 km
Inclination: 68.5 °
Period: 720.0 minutes
Semi major axis: 26610 km
RCS: 8.1788 m2 (large)
Launch date: July 25, 1990
Source: Commonwealth of Independent States (former USSR) (CIS)
Launch site: PLESETSK MISSILE AND SPACE COMPLEX (PKMTR)
Your satellite tracking list
Your tracking list is empty





NASA's NSSDC Master Catalog

Two Line Element Set (TLE):
1 20707U 90064A   17117.79693824 +.00000301 +00000-0 +00000-0 0  9994
2 20707 068.5429 026.0553 6058032 119.4226 356.8279 02.00893559195929
Source of the keplerian elements: AFSPC